Fort Sill, OK

1:31 PM CDT on October 22, 2017 (GMT -0500)
Post Army Air Field

Weather History for KFSI - September, 2013

Change the Weather History Date:

Wednesday, September 4, 2013

  Actual Average Record
Temperature  
Mean Temperature 80 °F -  
Max Temperature 97 °F 91 °F 109 °F (1998)
Min Temperature 65 °F 66 °F 48 °F (1974)
Cooling Degree Days 16    
Growing Degree Days 30 (Base 50)    
Moisture  
Dew Point 60 °F    
Average Humidity 53    
Maximum Humidity 80    
Minimum Humidity 25    
Precipitation  
Precipitation 0.00 in - - ()
Sea Level Pressure  
Sea Level Pressure 30.03 in    
Wind  
Wind Speed 6 mph (NE)    
Max Wind Speed 9 mph    
Max Gust Speed -    
Visibility 10 miles    
Events      
Averages and records for this station are not official NWS values.
T = Trace of Precipitation, MM = Missing Value Source: NWS Daily Summary

Daily Weather History Graph

Daily Weather History Graph

Search for Another Location

Airport or City:

Trip Planner

Search our weather history database for the weather conditions in past years. The results will help you decide how hot, cold, wet, or windy it might be!

Date:

Astronomy

Sep. 04, 2013 Rise Set
Actual Time 7:08 AM CDT 7:55 PM CDT
Civil Twilight 6:43 AM CDT 8:20 PM CDT
Nautical Twilight 6:13 AM CDT 8:51 PM CDT
Astronomical Twilight 5:42 AM CDT 9:22 PM CDT
Moon 6:22 AM CDT (9/4) 7:17 PM CDT (9/4)
Length of Visible Light 13h 37m
Length of Day
12h 46m
Waning Crescent, 1% of the Moon is Illuminated
Sep 4
Waning Crescent
Sep 5
New
Sep 12
First Quarter
Sep 19
Full
Sep 26
Last Quarter

Hourly Weather History & Observations

Time (CDT) Temp. Heat Index Dew Point Humidity Pressure Visibility Wind Dir Wind Speed Gust Speed Precip Events Conditions
12:58 AM 68.9 °F - 57.7 °F 68% 30.01 in 10.0 mi ENE 4.6 mph - N/A   Clear
1:58 AM 70.9 °F - 59.0 °F 66% 30.01 in 10.0 mi NE 3.5 mph - N/A   Clear
2:58 AM 68.0 °F - 59.0 °F 73% 30.02 in 10.0 mi NNW 4.6 mph - N/A   Clear
3:58 AM 65.5 °F - 59.0 °F 80% 30.01 in 10.0 mi North 6.9 mph - N/A   Clear
4:58 AM 66.2 °F - 59.2 °F 78% 30.01 in 10.0 mi North 6.9 mph - N/A   Clear
5:58 AM 67.5 °F - 59.0 °F 74% 30.01 in 10.0 mi North 6.9 mph - N/A   Clear
6:58 AM 68.0 °F - 58.6 °F 72% 30.04 in 10.0 mi North 6.9 mph - N/A   Clear
7:58 AM 68.2 °F - 59.5 °F 74% 30.07 in 10.0 mi North 8.1 mph - N/A   Clear
8:58 AM 73.8 °F - 61.0 °F 64% 30.08 in 10.0 mi North 6.9 mph - N/A   Clear
9:58 AM 78.8 °F - 63.9 °F 60% 30.08 in 10.0 mi NE 4.6 mph - N/A   Clear
10:58 AM 83.1 °F 85.2 °F 65.8 °F 56% 30.09 in 10.0 mi Variable 2.3 mph - N/A   Clear
11:58 AM 87.6 °F 89.1 °F 64.4 °F 46% 30.09 in 10.0 mi ENE 4.6 mph - N/A   Clear
12:58 PM 91.4 °F 91.4 °F 60.8 °F 36% 30.06 in 10.0 mi Variable 5.8 mph - N/A   Clear
1:58 PM 93.7 °F 92.3 °F 57.2 °F 29% 30.04 in 10.0 mi Variable 1.2 mph - N/A   Clear
2:58 PM 94.8 °F 93.8 °F 57.6 °F 29% 30.02 in 10.0 mi East 8.1 mph - N/A   Clear
3:58 PM 96.4 °F 95.3 °F 57.7 °F 27% 30.00 in 10.0 mi ENE 6.9 mph - N/A   Clear
4:58 PM 96.8 °F 96.2 °F 58.3 °F 28% 29.98 in 10.0 mi NE 2.3 mph - N/A   Clear
5:58 PM 96.4 °F 94.6 °F 55.6 °F 25% 29.97 in 10.0 mi East 6.9 mph - N/A   Clear
6:58 PM 94.1 °F 93.1 °F 58.1 °F 30% 29.97 in 10.0 mi ESE 6.9 mph - N/A   Clear
7:58 PM 88.9 °F 88.3 °F 59.4 °F 37% 29.99 in 10.0 mi East 5.8 mph - N/A   Clear
8:58 PM 86.0 °F 86.8 °F 62.8 °F 46% 30.01 in 10.0 mi East 8.1 mph - N/A   Clear
9:58 PM 83.3 °F 84.6 °F 64.0 °F 52% 30.02 in 10.0 mi East 8.1 mph - N/A   Clear
10:58 PM 81.7 °F 83.5 °F 64.9 °F 57% 30.04 in 10.0 mi East 6.9 mph - N/A   Clear
11:58 PM 81.0 °F 82.7 °F 65.1 °F 58% 30.05 in 10.0 mi East 9.2 mph - N/A   Clear